Location: S�o Luiz
(4.7500°S, 37.9500°W)
Time: 06:57:01
(UTC+00:00)

Daily predictions for brighter satellites

Satellite Brightness Start Highest point End
(mag) Time Altitude Azimuth Time Altitude Azimuth Time Altitude Azimuth
ARIANE 5 R/B 3.7 20:27:04 10° W 20:31:00 87° N 20:43:21 10° E
Cosmos 2233 Rocket 4.2 20:36:57 10° S 20:43:18 87° W 20:49:33 10° N
Cosmos 1844 4.4 20:41:10 10° S 20:46:23 34° ESE 20:51:32 10° NE
Hubble Space Telescope 3.4 20:49:15 10° SW 20:51:14 13° SSW 20:53:13 10° S
USA 215 3.4 20:46:09 10° SE 20:52:44 85° SW 20:59:17 10° NW
Cosmos 1844 Rocket 2.7 20:49:32 10° S 20:55:00 57° ESE 21:00:25 10° NNE
Cosmos 2298 Rocket 4.1 20:51:12 10° S 20:56:27 60° ESE 21:01:41 10° NNE
CZ-2C R/B 3.8 20:58:27 10° NE 21:02:52 24° ESE 21:07:16 10° SSE
CZ-2D R/B 3.8 21:04:04 10° SSE 21:07:39 36° E 21:11:14 10° NNE
SL-16 R/B 2.2 21:02:48 10° N 21:08:19 57° ENE 21:13:51 10° SSE
Cosmos 1939 Rocket 2.9 21:04:39 10° SSE 21:08:37 58° E 21:12:37 10° N
GPS 2-14 Rocket1 3.2 21:05:17 10° NW 21:08:50 41° NNE 21:11:20 17° E
Cosmos 2237 Rocket 4.1 21:05:24 10° NW 21:10:23 33° WSW 21:15:26 10° S
Sich 1 Rocket 3.5 21:07:41 10° S 21:12:06 83° E 21:16:32 10° N
Helios 1A Rocket 2.8 21:10:04 10° SSE 21:14:05 65° ENE 21:18:06 10° N
TSX-5 4.4 21:13:29 10° SSE 21:16:03 22° ESE 21:16:11 22° ESE
Cosmos 1674 Rocket 4.1 21:15:06 10° NNW 21:19:29 62° W 21:23:52 10° S
Cosmos 1975 Rocket 4.5 21:16:53 10° NE 21:18:50 18° ENE 21:18:50 18° ENE
BREEZE-M DEB (TANK) 4.3 21:21:24 10° W 21:23:02 15° SW 21:25:09 10° S
Atlas Centaur 2 2.4 21:17:39 10° WNW 21:24:39 76° SSW 21:28:58 17° SE
Meteor 1-12 Rocket 4.3 21:19:40 10° S 21:25:43 83° E 21:31:40 10° N
Cosmos 2150 Rocket 4.4 21:20:54 10° SSW 21:26:05 68° WNW 21:31:20 10° N
Okean 2 Rocket 3.0 21:25:51 10° S 21:30:24 83° E 21:34:55 10° N
Delta 2 Rocket 4.0 21:25:46 10° WNW 21:32:05 73° SSW 21:36:09 21° SE
Ariane H10+ 1.9 21:31:06 10° W 21:33:16 73° S 21:33:41 54° ESE
Cosmos 1125 Rocket 3.4 21:28:29 10° S 21:33:45 86° ESE 21:39:02 10° NNE
SWIFT 2.7 21:30:13 10° W 21:34:20 57° SSW 21:36:12 29° SE
NOSS 3-4 (A) 3.5 21:30:14 10° SSW 21:36:22 77° WNW 21:42:13 10° NNE
NOSS 3-4 (C) 3.4 21:30:21 10° SSW 21:36:30 79° WNW 21:42:19 10° NNE
Okean-O 2.6 21:32:46 10° S 21:37:13 86° WSW 21:41:38 10° NNW
Cosmos 2285 Rocket 3.9 21:31:29 10° S 21:37:46 74° ESE 21:44:01 10° NNE
Cosmos 1300 Rocket 3.6 21:34:07 10° S 21:38:28 77° W 21:42:48 10° N
Ariane H10 1.1 21:38:24 10° W 21:40:59 58° NNW 21:40:59 58° NNW
GPS 2-12 Rocket1 4.0 21:40:16 10° W 21:44:50 42° SSW 21:46:49 28° SSE
Delta 198 4.3 21:39:55 10° NW 21:45:39 49° NNE 21:46:55 40° ENE
YAOGAN 1 2.4 21:41:28 10° SSE 21:45:48 84° ENE 21:50:06 10° N
Cosmos 1464 Rocket 4.2 21:39:40 10° S 21:45:48 72° W 21:51:53 10° N
ARIANE 5 R/B 4.0 21:32:31 10° W 21:46:04 72° NNW 21:47:45 39° ENE
Milstar 3 3.5 21:40:40 10° SW 21:47:10 44° SSE 21:50:34 31° ESE
CZ-4 R/B 1.8 21:44:48 10° S 21:48:57 64° WSW 21:53:06 10° NNW
SL-8 R/B 4.0 21:46:35 10° SSW 21:51:11 47° SE 21:51:11 47° SE
Meteor 1-21 4.1 21:47:43 10° N 21:53:13 64° E 21:58:48 10° SSE
Ariane H10+ 3.9 21:51:35 10° NW 21:52:38 16° NNW 21:52:38 16° NNW
DMSP B5D2-2 3.9 21:50:12 10° NNE 21:55:27 81° ESE 22:00:44 10° S
Cosmos 2112 Rocket 4.0 21:50:45 10° N 21:55:52 57° ENE 21:56:21 55° ESE
H-2A R/B 3.1 21:58:51 27° NNE 21:58:51 27° NNE 22:01:15 10° N
ATLAS 2AS CENTAUR R/B 3.3 21:50:19 10° SSW 21:57:36 66° WNW 22:05:22 10° NNE
Cosmos 1680 Rocket 3.3 21:54:05 10° N 21:59:19 79° ENE 22:02:14 27° SSE
ARIANE 3 DEB 3.8 21:56:11 10° WNW 21:59:57 52° NNE 22:00:54 47° NE
Okean 2 4.1 21:58:02 10° NNW 22:02:02 52° W 22:06:03 10° S
Cosmos 158 Rocket 4.2 22:06:15 10° NNW 22:11:12 64° WSW 22:14:02 25° S
Ariane H10 3.9 22:09:08 10° W 22:12:11 87° S 22:12:18 85° SE
Cosmos 1932 4.2 22:06:37 10° NNW 22:12:49 76° ENE 22:13:23 70° ESE
CZ-2C R/B 3.9 22:22:07 10° S 22:26:44 45° WSW 22:31:30 10° NNW
Cosmos 2278 Rocket 3.8 22:24:05 10° S 22:26:13 24° S 22:26:13 24° S
Gbstr 26 Del rocket 4.2 22:24:56 10° SW 22:30:22 59° NW 22:30:55 57° NNW
Ariane H10 4.0 22:35:25 10° WNW 22:44:33 39° NNW 22:44:33 39° NNW
ARIANE 5 R/B 4.5 22:58:47 10° W 23:48:49 61° W 23:48:49 61° W
